TimeCST,TemperatureF,Dew PointF,Humidity,Sea Level PressureIn,VisibilityMPH,Wind Direction,Wind SpeedMPH,Gust SpeedMPH,PrecipitationIn,Events,Conditions,WindDirDegrees,DateUTC
12:55 AM,31.1,28.8,91,30.34,10.0,Calm,Calm,-,N/A,,Clear,0,2012-11-29 06:55:00
1:55 AM,30.6,28.0,90,30.33,10.0,Calm,Calm,-,N/A,,Clear,0,2012-11-29 07:55:00
2:55 AM,29.7,27.7,92,30.33,10.0,Calm,Calm,-,N/A,,Clear,0,2012-11-29 08:55:00
3:55 AM,28.9,27.0,92,30.33,10.0,Calm,Calm,-,N/A,,Clear,0,2012-11-29 09:55:00
4:55 AM,27.7,25.5,92,30.33,10.0,Calm,Calm,-,N/A,,Clear,0,2012-11-29 10:55:00
5:55 AM,27.3,25.3,92,30.35,10.0,Calm,Calm,-,N/A,,Clear,0,2012-11-29 11:55:00
6:55 AM,26.2,23.7,90,30.35,10.0,Calm,Calm,-,N/A,,Clear,0,2012-11-29 12:55:00
7:55 AM,29.8,27.7,92,30.35,10.0,Calm,Calm,-,N/A,,Clear,0,2012-11-29 13:55:00
8:55 AM,38.1,34.3,86,30.36,10.0,ENE,3.5,-,N/A,,Clear,70,2012-11-29 14:55:00
9:55 AM,46.2,34.9,65,30.37,10.0,South,8.1,-,N/A,,Clear,190,2012-11-29 15:55:00
10:55 AM,51.8,34.0,51,30.35,10.0,South,5.8,-,N/A,,Clear,170,2012-11-29 16:55:00
11:55 AM,54.3,34.9,48,30.31,10.0,Variable,5.8,-,N/A,,Clear,0,2012-11-29 17:55:00
12:55 PM,58.6,34.2,40,30.27,10.0,SSE,8.1,-,N/A,,Clear,160,2012-11-29 18:55:00
1:55 PM,59.5,36.7,43,30.25,10.0,SSE,3.5,-,N/A,,Clear,150,2012-11-29 19:55:00
2:55 PM,62.2,36.9,39,30.22,10.0,SE,5.8,-,N/A,,Clear,140,2012-11-29 20:55:00
3:55 PM,61.5,34.7,37,30.22,10.0,SSE,5.8,-,N/A,,Clear,150,2012-11-29 21:55:00
4:55 PM,57.7,35.8,44,30.22,10.0,Calm,Calm,-,N/A,,Clear,0,2012-11-29 22:55:00
5:55 PM,51.6,34.2,51,30.22,10.0,ESE,3.5,-,N/A,,Clear,120,2012-11-29 23:55:00
6:55 PM,50.5,35.4,56,30.22,10.0,SE,3.5,-,N/A,,Clear,130,2012-11-30 00:55:00
7:55 PM,52.3,34.2,50,30.22,10.0,Variable,3.5,-,N/A,,Clear,0,2012-11-30 01:55:00
8:55 PM,49.3,33.6,55,30.23,10.0,SE,4.6,-,N/A,,Clear,130,2012-11-30 02:55:00
9:55 PM,47.1,33.3,59,30.23,10.0,ESE,3.5,-,N/A,,Clear,120,2012-11-30 03:55:00
10:55 PM,39.2,32.9,78,30.24,10.0,Calm,Calm,-,N/A,,Clear,0,2012-11-30 04:55:00
11:55 PM,41.5,32.9,71,30.22,10.0,Calm,Calm,-,N/A,,Clear,0,2012-11-30 05:55:00